Check out our new BloomSky Weather System.

Active alerts

Galveston, TX
  Details for Galveston, TX Rip Current Statement


Thunder radar  blitzortung!


Rain radar more information rain snow radar


Visit our other weather sites:

Template documentation
and downloads

And another site



Weather Underground History page Text

Daily Summary for August 31, 2017 Units:  English    Metric   Both
« Previous Day
Next Day »
Daily Weekly Monthly Yearly Custom
  High: Low: Average:
Temperature: TemperatureF °F 72.1 °F 81.4 °F
Dew Point: DewpointF °F 67.6 °F 69.9 °F
Humidity: Humidity % 46 % 70 %
Wind Speed: WindSpeedMPH mph 0.0 mph 1.4 mph
Wind Gust: WindSpeedGustMPH mph - -
Wind:- - West
Pressure: PressureIn in 29.83 in -
Precipitation: 0.00 in    
Historical Graphs
 
 
Tabular Data for August 31, 2017
Time Temperature Dew Point Pressure Wind Wind Speed Wind Gust Humidity Rainfall Rate (Hourly)
TemperatureF °F DewpointF °F PressureIn in Calm     Humidity % HourlyPrecipIn in
00:01 78.4 °F 69.8 °F 29.85 in NNW 1.0 mph 5.0 mph 75 % 0.00 in
00:06 78.4 °F 69.8 °F 29.85 in West 2.0 mph 6.0 mph 75 % 0.00 in
00:11 78.4 °F 69.8 °F 29.84 in West 1.0 mph 6.0 mph 75 % 0.00 in
00:12 78.4 °F 69.8 °F 29.85 in Calm   6.0 mph 75 % 0.00 in
00:17 78.4 °F 69.8 °F 29.84 in WNW 1.0 mph 6.0 mph 75 % 0.00 in
00:22 78.4 °F 69.8 °F 29.85 in NNW 1.0 mph 5.0 mph 75 % 0.00 in
00:27 78.4 °F 69.8 °F 29.85 in WSW 2.0 mph 5.0 mph 75 % 0.00 in
00:32 78.4 °F 69.8 °F 29.84 in WNW 3.0 mph 5.0 mph 75 % 0.00 in
00:37 78.4 °F 69.8 °F 29.84 in NW 2.0 mph 5.0 mph 75 % 0.00 in
00:42 78.4 °F 69.8 °F 29.84 in West 2.0 mph 6.0 mph 75 % 0.00 in
00:47 78.4 °F 69.8 °F 29.84 in Calm   6.0 mph 75 % 0.00 in
00:52 78.3 °F 70.0 °F 29.84 in WNW 1.0 mph 6.0 mph 76 % 0.00 in
00:57 78.3 °F 70.0 °F 29.84 in NW 7.0 mph 7.0 mph 76 % 0.00 in
01:02 78.3 °F 70.0 °F 29.84 in West 1.0 mph 7.0 mph 76 % 0.00 in
01:07 78.1 °F 70.0 °F 29.84 in WNW 2.0 mph 7.0 mph 76 % 0.00 in
01:12 78.1 °F 70.0 °F 29.84 in Calm   7.0 mph 76 % 0.00 in
01:17 77.9 °F 70.2 °F 29.84 in NNW 1.0 mph 5.0 mph 77 % 0.00 in
01:22 77.7 °F 70.0 °F 29.84 in West 1.0 mph 5.0 mph 77 % 0.00 in
01:27 77.7 °F 70.0 °F 29.83 in Calm   3.0 mph 77 % 0.00 in
01:32 77.5 °F 69.8 °F 29.83 in Calm   3.0 mph 77 % 0.00 in
01:37 77.4 °F 70.0 °F 29.84 in WSW 1.0 mph 3.0 mph 78 % 0.00 in
01:42 77.2 °F 69.8 °F 29.83 in Calm   3.0 mph 78 % 0.00 in
01:47 77.0 °F 70.0 °F 29.84 in WSW 1.0 mph 3.0 mph 79 % 0.00 in
01:52 76.8 °F 69.8 °F 29.84 in Calm   3.0 mph 79 % 0.00 in
01:57 76.6 °F 70.0 °F 29.83 in Calm   2.0 mph 80 % 0.00 in
02:02 76.5 °F 69.8 °F 29.83 in Calm   2.0 mph 80 % 0.00 in
02:07 76.3 °F 69.6 °F 29.84 in Calm   2.0 mph 80 % 0.00 in
02:12 75.9 °F 69.6 °F 29.83 in Calm   1.0 mph 81 % 0.00 in
02:17 75.7 °F 69.8 °F 29.83 in WNW 1.0 mph 1.0 mph 82 % 0.00 in
02:22 75.7 °F 69.8 °F 29.83 in Calm   2.0 mph 82 % 0.00 in
02:27 75.6 °F 69.6 °F 29.83 in Calm   2.0 mph 82 % 0.00 in
02:32 75.6 °F 70.0 °F 29.83 in Calm   2.0 mph 83 % 0.00 in
02:37 75.4 °F 69.8 °F 29.83 in Calm   1.0 mph 83 % 0.00 in
02:42 75.2 °F 70.0 °F 29.83 in WSW 1.0 mph 1.0 mph 84 % 0.00 in
02:47 75.0 °F 69.8 °F 29.83 in Calm   1.0 mph 84 % 0.00 in
02:52 74.8 °F 70.0 °F 29.83 in Calm   1.0 mph 85 % 0.00 in
02:57 74.7 °F 69.8 °F 29.84 in Calm   2.0 mph 85 % 0.00 in
03:02 74.7 °F 70.2 °F 29.84 in Calm   3.0 mph 86 % 0.00 in
03:07 74.5 °F 70.0 °F 29.84 in Calm   3.0 mph 86 % 0.00 in
03:12 74.5 °F 70.0 °F 29.84 in Calm   3.0 mph 86 % 0.00 in
03:17 74.5 °F 70.0 °F 29.84 in Calm   3.0 mph 86 % 0.00 in
03:22 74.5 °F 70.0 °F 29.84 in West 1.0 mph 3.0 mph 86 % 0.00 in
03:27 74.5 °F 70.0 °F 29.84 in Calm   2.0 mph 86 % 0.00 in
03:33 74.7 °F 70.2 °F 29.85 in Calm   3.0 mph 86 % 0.00 in
03:38 74.8 °F 70.3 °F 29.85 in WNW 2.0 mph 3.0 mph 86 % 0.00 in
03:43 74.8 °F 70.0 °F 29.85 in Calm   3.0 mph 85 % 0.00 in
03:48 75.0 °F 70.2 °F 29.85 in Calm   3.0 mph 85 % 0.00 in
03:53 75.0 °F 70.2 °F 29.85 in West 1.0 mph 3.0 mph 85 % 0.00 in
03:58 74.8 °F 70.0 °F 29.85 in WNW 1.0 mph 3.0 mph 85 % 0.00 in
04:03 74.8 °F 70.0 °F 29.85 in WSW 1.0 mph 3.0 mph 85 % 0.00 in
04:08 74.7 °F 69.8 °F 29.86 in Calm   3.0 mph 85 % 0.00 in
04:13 74.7 °F 69.8 °F 29.86 in NNW 1.0 mph 3.0 mph 85 % 0.00 in
04:18 74.7 °F 69.8 °F 29.86 in Calm   3.0 mph 85 % 0.00 in
04:23 74.7 °F 70.2 °F 29.86 in Calm   3.0 mph 86 % 0.00 in
04:28 74.5 °F 70.0 °F 29.86 in Calm   3.0 mph 86 % 0.00 in
04:33 74.5 °F 70.0 °F 29.86 in Calm   3.0 mph 86 % 0.00 in
04:38 74.3 °F 69.8 °F 29.86 in WNW 1.0 mph 3.0 mph 86 % 0.00 in
04:43 74.1 °F 69.6 °F 29.86 in Calm   3.0 mph 86 % 0.00 in
04:48 74.1 °F 69.6 °F 29.86 in Calm   3.0 mph 86 % 0.00 in
04:53 73.9 °F 69.4 °F 29.86 in NW 1.0 mph 3.0 mph 86 % 0.00 in
04:58 73.9 °F 69.4 °F 29.86 in NW 1.0 mph 3.0 mph 86 % 0.00 in
05:03 73.9 °F 69.4 °F 29.86 in WSW 1.0 mph 2.0 mph 86 % 0.00 in
05:08 73.9 °F 69.4 °F 29.86 in West 1.0 mph 4.0 mph 86 % 0.00 in
05:13 73.8 °F 69.6 °F 29.86 in Calm   4.0 mph 87 % 0.00 in
05:18 73.6 °F 69.4 °F 29.86 in Calm   4.0 mph 87 % 0.00 in
05:23 73.2 °F 69.1 °F 29.86 in WSW 3.0 mph 3.0 mph 87 % 0.00 in
05:28 73.2 °F 69.4 °F 29.86 in Calm   3.0 mph 88 % 0.00 in
05:33 73.0 °F 69.3 °F 29.86 in Calm   3.0 mph 88 % 0.00 in
05:38 72.9 °F 69.1 °F 29.86 in WSW 2.0 mph 3.0 mph 88 % 0.00 in
05:43 72.9 °F 69.1 °F 29.86 in West 1.0 mph 2.0 mph 88 % 0.00 in
05:48 72.9 °F 69.1 °F 29.87 in West 1.0 mph 2.0 mph 88 % 0.00 in
05:53 72.7 °F 68.9 °F 29.87 in Calm   2.0 mph 88 % 0.00 in
05:58 72.7 °F 68.9 °F 29.87 in Calm   2.0 mph 88 % 0.00 in
06:03 72.3 °F 68.9 °F 29.87 in Calm   2.0 mph 89 % 0.00 in
06:08 72.3 °F 68.9 °F 29.87 in Calm   2.0 mph 89 % 0.00 in
06:13 72.1 °F 68.7 °F 29.87 in WSW 1.0 mph 2.0 mph 89 % 0.00 in
06:18 72.3 °F 68.9 °F 29.88 in Calm   2.0 mph 89 % 0.00 in
06:23 72.3 °F 68.9 °F 29.88 in West 1.0 mph 2.0 mph 89 % 0.00 in
06:28 72.3 °F 68.5 °F 29.88 in Calm   3.0 mph 88 % 0.00 in
06:33 72.5 °F 68.7 °F 29.88 in NW 1.0 mph 3.0 mph 88 % 0.00 in
06:34 72.5 °F 68.7 °F 29.88 in WNW 2.0 mph 3.0 mph 88 % 0.00 in
06:39 72.9 °F 68.7 °F 29.88 in WSW 2.0 mph 5.0 mph 87 % 0.00 in
06:44 72.9 °F 68.7 °F 29.88 in WSW 1.0 mph 5.0 mph 87 % 0.00 in
06:49 73.0 °F 68.5 °F 29.89 in West 1.0 mph 5.0 mph 86 % 0.00 in
06:54 73.0 °F 68.5 °F 29.89 in Calm   5.0 mph 86 % 0.00 in
06:59 72.9 °F 68.4 °F 29.89 in Calm   5.0 mph 86 % 0.00 in
07:04 72.9 °F 68.4 °F 29.90 in Calm   5.0 mph 86 % 0.00 in
07:09 72.7 °F 68.5 °F 29.90 in Calm   2.0 mph 87 % 0.00 in
07:14 72.7 °F 68.5 °F 29.90 in Calm   2.0 mph 87 % 0.00 in
07:19 72.7 °F 68.5 °F 29.90 in Calm   2.0 mph 87 % 0.00 in
07:24 72.7 °F 68.5 °F 29.90 in Calm   2.0 mph 87 % 0.00 in
07:29 72.9 °F 68.7 °F 29.90 in Calm   2.0 mph 87 % 0.00 in
07:34 72.9 °F 69.1 °F 29.90 in Calm   2.0 mph 88 % 0.00 in
07:39 72.9 °F 69.1 °F 29.91 in Calm   2.0 mph 88 % 0.00 in
07:44 72.9 °F 69.1 °F 29.91 in Calm   2.0 mph 88 % 0.00 in
07:49 73.0 °F 69.3 °F 29.91 in Calm   1.0 mph 88 % 0.00 in
07:54 73.0 °F 69.3 °F 29.91 in SSW 1.0 mph 2.0 mph 88 % 0.00 in
07:55 73.0 °F 69.3 °F 29.91 in Calm   2.0 mph 88 % 0.00 in
08:00 73.2 °F 69.4 °F 29.91 in Calm   3.0 mph 88 % 0.00 in
08:05 73.6 °F 69.4 °F 29.91 in Calm   3.0 mph 87 % 0.00 in
08:10 73.9 °F 69.8 °F 29.91 in SSW 2.0 mph 3.0 mph 87 % 0.00 in
08:15 74.8 °F 70.3 °F 29.91 in WNW 1.0 mph 3.0 mph 86 % 0.00 in
08:20 75.7 °F 70.5 °F 29.91 in West 1.0 mph 4.0 mph 84 % 0.00 in
08:25 76.6 °F 70.7 °F 29.91 in West 2.0 mph 4.0 mph 82 % 0.00 in
08:30 77.2 °F 70.5 °F 29.91 in NW 3.0 mph 4.0 mph 80 % 0.00 in
08:35 77.9 °F 71.2 °F 29.91 in SSW 3.0 mph 3.0 mph 80 % 0.00 in
08:40 78.6 °F 71.6 °F 29.91 in West 1.0 mph 7.0 mph 79 % 0.00 in
08:45 79.2 °F 71.8 °F 29.91 in Calm   7.0 mph 78 % 0.00 in
08:50 79.3 °F 71.1 °F 29.91 in NW 2.0 mph 6.0 mph 76 % 0.00 in
08:55 79.7 °F 71.8 °F 29.91 in West 2.0 mph 6.0 mph 77 % 0.00 in
09:00 79.9 °F 71.2 °F 29.91 in SW 2.0 mph 6.0 mph 75 % 0.00 in
09:05 80.1 °F 72.1 °F 29.92 in SW 1.0 mph 5.0 mph 77 % 0.00 in
09:10 80.2 °F 71.2 °F 29.92 in NW 1.0 mph 5.0 mph 74 % 0.00 in
09:15 80.2 °F 71.6 °F 29.92 in South 1.0 mph 5.0 mph 75 % 0.00 in
09:20 80.8 °F 72.1 °F 29.92 in Calm   4.0 mph 75 % 0.00 in
09:25 81.1 °F 72.1 °F 29.92 in South 1.0 mph 5.0 mph 74 % 0.00 in
09:30 81.9 °F 72.3 °F 29.92 in SSW 2.0 mph 5.0 mph 73 % 0.00 in
09:35 82.2 °F 72.7 °F 29.92 in South 2.0 mph 6.0 mph 73 % 0.00 in
09:40 82.8 °F 72.3 °F 29.92 in North 2.0 mph 6.0 mph 71 % 0.00 in
09:45 82.2 °F 72.0 °F 29.92 in Calm   6.0 mph 71 % 0.00 in
09:50 82.2 °F 72.7 °F 29.92 in WNW 4.0 mph 4.0 mph 73 % 0.00 in
09:55 82.6 °F 73.0 °F 29.92 in South 2.0 mph 4.0 mph 73 % 0.00 in
10:00 83.1 °F 73.6 °F 29.93 in WSW 4.0 mph 5.0 mph 73 % 0.00 in
10:05 82.9 °F 73.0 °F 29.93 in SE 1.0 mph 5.0 mph 72 % 0.00 in
10:10 83.3 °F 72.9 °F 29.93 in SSW 1.0 mph 5.0 mph 71 % 0.00 in
10:15 83.8 °F 74.3 °F 29.93 in Calm   5.0 mph 73 % 0.00 in
10:20 84.6 °F 73.2 °F 29.93 in East 1.0 mph 5.0 mph 69 % 0.00 in
10:25 84.9 °F 72.7 °F 29.93 in SW 1.0 mph 5.0 mph 67 % 0.00 in
10:30 85.5 °F 74.5 °F 29.93 in Calm   5.0 mph 70 % 0.00 in
10:35 86.4 °F 73.6 °F 29.92 in Calm   5.0 mph 66 % 0.00 in
10:40 86.7 °F 74.5 °F 29.92 in SSW 3.0 mph 5.0 mph 67 % 0.00 in
10:45 86.9 °F 72.9 °F 29.93 in WSW 4.0 mph 7.0 mph 63 % 0.00 in
10:50 86.4 °F 73.2 °F 29.92 in NNW 2.0 mph 7.0 mph 65 % 0.00 in
10:55 86.5 °F 72.5 °F 29.92 in West 5.0 mph 7.0 mph 63 % 0.00 in
11:00 86.5 °F 74.3 °F 29.92 in NNW 2.0 mph 6.0 mph 67 % 0.00 in
11:05 87.1 °F 73.9 °F 29.92 in WSW 3.0 mph 6.0 mph 65 % 0.00 in
11:10 87.3 °F 73.6 °F 29.92 in WNW 2.0 mph 6.0 mph 64 % 0.00 in
11:15 87.1 °F 72.5 °F 29.92 in West 4.0 mph 9.0 mph 62 % 0.00 in
11:20 87.3 °F 72.1 °F 29.92 in West 1.0 mph 9.0 mph 61 % 0.00 in
11:25 87.3 °F 72.1 °F 29.92 in WSW 1.0 mph 9.0 mph 61 % 0.00 in
11:30 87.6 °F 71.6 °F 29.92 in WSW 2.0 mph 9.0 mph 59 % 0.00 in
11:32 87.6 °F 71.6 °F 29.92 in West 3.0 mph 9.0 mph 59 % 0.00 in
11:37 87.6 °F 71.6 °F 29.92 in NW 4.0 mph 7.0 mph 59 % 0.00 in
11:42 87.8 °F 72.1 °F 29.92 in West 4.0 mph 11.0 mph 60 % 0.00 in
11:47 88.3 °F 72.7 °F 29.92 in WSW 1.0 mph 11.0 mph 60 % 0.00 in
11:52 89.1 °F 72.3 °F 29.92 in West 2.0 mph 11.0 mph 58 % 0.00 in
11:57 89.6 °F 72.3 °F 29.92 in NNW 2.0 mph 6.0 mph 57 % 0.00 in
12:02 90.0 °F 71.6 °F 29.92 in SSE 1.0 mph 6.0 mph 55 % 0.00 in
12:07 89.8 °F 71.4 °F 29.92 in ENE 1.0 mph 7.0 mph 55 % 0.00 in
12:12 89.8 °F 71.4 °F 29.92 in NW 6.0 mph 8.0 mph 55 % 0.00 in
12:17 89.8 °F 70.9 °F 29.92 in West 5.0 mph 13.0 mph 54 % 0.00 in
12:22 89.4 °F 70.5 °F 29.91 in NNW 4.0 mph 13.0 mph 54 % 0.00 in
12:27 90.0 °F 70.5 °F 29.91 in SSE 1.0 mph 13.0 mph 53 % 0.00 in
12:32 90.0 °F 69.4 °F 29.91 in WSW 3.0 mph 10.0 mph 51 % 0.00 in
12:37 89.8 °F 69.3 °F 29.91 in West 4.0 mph 9.0 mph 51 % 0.00 in
12:42 90.0 °F 71.1 °F 29.91 in NNW 3.0 mph 8.0 mph 54 % 0.00 in
12:47 90.0 °F 71.1 °F 29.91 in WNW 5.0 mph 9.0 mph 54 % 0.00 in
12:52 90.5 °F 71.1 °F 29.91 in West 3.0 mph 9.0 mph 53 % 0.00 in
12:57 90.0 °F 70.0 °F 29.91 in WSW 4.0 mph 9.0 mph 52 % 0.00 in
13:02 90.1 °F 70.7 °F 29.91 in West 1.0 mph 9.0 mph 53 % 0.00 in
13:07 90.3 °F 69.8 °F 29.91 in SW 1.0 mph 9.0 mph 51 % 0.00 in
13:12 89.8 °F 69.3 °F 29.90 in NW 7.0 mph 12.0 mph 51 % 0.00 in
13:17 89.8 °F 69.8 °F 29.90 in WNW 4.0 mph 12.0 mph 52 % 0.00 in
13:22 90.0 °F 68.9 °F 29.90 in North 3.0 mph 12.0 mph 50 % 0.00 in
13:27 89.8 °F 69.8 °F 29.90 in WNW 2.0 mph 10.0 mph 52 % 0.00 in
13:32 90.1 °F 68.9 °F 29.90 in SSW 4.0 mph 10.0 mph 50 % 0.00 in
13:37 90.1 °F 69.6 °F 29.90 in WNW 3.0 mph 11.0 mph 51 % 0.00 in
13:42 89.8 °F 70.3 °F 29.90 in SW 1.0 mph 11.0 mph 53 % 0.00 in
13:47 90.1 °F 70.2 °F 29.90 in WNW 4.0 mph 11.0 mph 52 % 0.00 in
13:52 90.3 °F 69.8 °F 29.90 in West 2.0 mph 9.0 mph 51 % 0.00 in
13:57 90.7 °F 70.7 °F 29.90 in NNW 4.0 mph 9.0 mph 52 % 0.00 in
14:02 90.7 °F 69.4 °F 29.90 in WNW 3.0 mph 9.0 mph 50 % 0.00 in
14:07 91.0 °F 70.3 °F 29.89 in NNW 3.0 mph 10.0 mph 51 % 0.00 in
14:12 91.0 °F 69.8 °F 29.89 in NW 5.0 mph 10.0 mph 50 % 0.00 in
14:17 91.0 °F 69.3 °F 29.89 in WNW 6.0 mph 10.0 mph 49 % 0.00 in
14:22 90.1 °F 69.6 °F 29.88 in NNW 6.0 mph 13.0 mph 51 % 0.00 in
14:27 90.7 °F 71.2 °F 29.88 in NE 4.0 mph 13.0 mph 53 % 0.00 in
14:32 90.7 °F 70.0 °F 29.88 in WNW 6.0 mph 13.0 mph 51 % 0.00 in
14:33 90.7 °F 70.0 °F 29.88 in NW 8.0 mph 13.0 mph 51 % 0.00 in
14:38 90.0 °F 68.9 °F 29.88 in NNW 5.0 mph 11.0 mph 50 % 0.00 in
14:43 89.8 °F 69.3 °F 29.88 in NW 4.0 mph 11.0 mph 51 % 0.00 in
14:48 90.3 °F 69.1 °F 29.88 in NW 4.0 mph 11.0 mph 50 % 0.00 in
14:53 90.0 °F 68.9 °F 29.88 in SW 4.0 mph 11.0 mph 50 % 0.00 in
14:58 90.0 °F 69.4 °F 29.87 in South 1.0 mph 9.0 mph 51 % 0.00 in
15:03 90.7 °F 68.9 °F 29.87 in WNW 3.0 mph 9.0 mph 49 % 0.00 in
15:08 91.2 °F 68.7 °F 29.87 in WSW 2.0 mph 7.0 mph 48 % 0.00 in
15:13 91.6 °F 67.8 °F 29.87 in WNW 6.0 mph 8.0 mph 46 % 0.00 in
15:18 90.9 °F 68.5 °F 29.87 in NNW 4.0 mph 8.0 mph 48 % 0.00 in
15:23 90.9 °F 69.1 °F 29.87 in WNW 5.0 mph 8.0 mph 49 % 0.00 in
15:28 90.3 °F 68.0 °F 29.87 in NW 2.0 mph 8.0 mph 48 % 0.00 in
15:33 90.0 °F 68.9 °F 29.87 in Calm   9.0 mph 50 % 0.00 in
15:38 90.0 °F 68.9 °F 29.87 in WNW 2.0 mph 9.0 mph 50 % 0.00 in
15:43 90.0 °F 69.4 °F 29.87 in NW 3.0 mph 9.0 mph 51 % 0.00 in
15:48 90.0 °F 69.4 °F 29.87 in NW 1.0 mph 8.0 mph 51 % 0.00 in
15:53 90.0 °F 69.4 °F 29.86 in NW 4.0 mph 9.0 mph 51 % 0.00 in
15:58 90.0 °F 68.9 °F 29.86 in West 1.0 mph 9.0 mph 50 % 0.00 in
16:03 90.5 °F 69.3 °F 29.86 in NNW 6.0 mph 9.0 mph 50 % 0.00 in
16:08 90.9 °F 69.6 °F 29.86 in NNW 6.0 mph 9.0 mph 50 % 0.00 in
16:13 90.9 °F 67.8 °F 29.86 in NW 5.0 mph 9.0 mph 47 % 0.00 in
16:18 90.1 °F 67.8 °F 29.87 in NW 5.0 mph 10.0 mph 48 % 0.00 in
16:23 90.3 °F 69.1 °F 29.87 in ENE 1.0 mph 10.0 mph 50 % 0.00 in
16:28 90.7 °F 68.9 °F 29.87 in WSW 3.0 mph 10.0 mph 49 % 0.00 in
16:33 90.9 °F 68.5 °F 29.86 in NNW 4.0 mph 9.0 mph 48 % 0.00 in
16:38 90.9 °F 69.1 °F 29.86 in Calm   8.0 mph 49 % 0.00 in
16:43 91.2 °F 68.2 °F 29.86 in SW 6.0 mph 8.0 mph 47 % 0.00 in
16:48 91.2 °F 68.7 °F 29.86 in WNW 2.0 mph 9.0 mph 48 % 0.00 in
16:53 91.2 °F 68.2 °F 29.86 in West 4.0 mph 9.0 mph 47 % 0.00 in
16:58 91.4 °F 68.4 °F 29.86 in NW 2.0 mph 9.0 mph 47 % 0.00 in
16:59 91.2 °F 68.2 °F 29.86 in NW 3.0 mph 9.0 mph 47 % 0.00 in
17:04 91.0 °F 68.5 °F 29.86 in NNW 6.0 mph 8.0 mph 48 % 0.00 in
17:09 91.0 °F 69.3 °F 29.86 in NNE 2.0 mph 10.0 mph 49 % 0.00 in
17:14 91.0 °F 68.0 °F 29.86 in NNW 5.0 mph 10.0 mph 47 % 0.00 in
17:19 90.9 °F 68.5 °F 29.86 in WNW 4.0 mph 10.0 mph 48 % 0.00 in
17:24 90.9 °F 68.5 °F 29.86 in NW 3.0 mph 8.0 mph 48 % 0.00 in
17:25 90.9 °F 68.5 °F 29.86 in NNW 3.0 mph 8.0 mph 48 % 0.00 in
17:30 90.9 °F 67.8 °F 29.86 in NW 4.0 mph 8.0 mph 47 % 0.00 in
17:35 90.9 °F 67.8 °F 29.86 in NW 3.0 mph 8.0 mph 47 % 0.00 in
17:40 90.9 °F 68.5 °F 29.86 in Calm   8.0 mph 48 % 0.00 in
17:45 91.0 °F 68.5 °F 29.86 in Calm   8.0 mph 48 % 0.00 in
17:50 91.2 °F 69.4 °F 29.86 in West 4.0 mph 6.0 mph 49 % 0.00 in
17:55 91.0 °F 68.0 °F 29.86 in NW 2.0 mph 8.0 mph 47 % 0.00 in
18:00 90.9 °F 68.5 °F 29.86 in NNW 3.0 mph 8.0 mph 48 % 0.00 in
18:05 90.5 °F 68.2 °F 29.86 in NW 2.0 mph 8.0 mph 48 % 0.00 in
18:10 90.5 °F 68.7 °F 29.86 in West 3.0 mph 7.0 mph 49 % 0.00 in
18:15 90.3 °F 68.5 °F 29.86 in NW 2.0 mph 7.0 mph 49 % 0.00 in
18:20 90.1 °F 68.4 °F 29.86 in WNW 1.0 mph 6.0 mph 49 % 0.00 in
18:25 90.0 °F 67.6 °F 29.86 in NW 2.0 mph 5.0 mph 48 % 0.00 in
18:30 90.0 °F 68.2 °F 29.86 in WSW 1.0 mph 4.0 mph 49 % 0.00 in
18:35 90.0 °F 68.2 °F 29.86 in West 1.0 mph 4.0 mph 49 % 0.00 in
18:40 89.8 °F 68.0 °F 29.86 in NNW 2.0 mph 4.0 mph 49 % 0.00 in
18:45 89.6 °F 68.5 °F 29.86 in West 1.0 mph 4.0 mph 50 % 0.00 in
18:50 89.4 °F 68.9 °F 29.86 in West 1.0 mph 4.0 mph 51 % 0.00 in
18:55 89.4 °F 68.9 °F 29.86 in NNW 1.0 mph 4.0 mph 51 % 0.00 in
19:00 89.4 °F 68.9 °F 29.86 in Calm   3.0 mph 51 % 0.00 in
19:05 89.4 °F 68.9 °F 29.86 in Calm   3.0 mph 51 % 0.00 in
19:10 89.1 °F 69.1 °F 29.86 in NW 1.0 mph 2.0 mph 52 % 0.00 in
19:15 88.5 °F 69.3 °F 29.86 in Calm   2.0 mph 53 % 0.00 in
19:20 88.2 °F 68.9 °F 29.86 in WNW 1.0 mph 2.0 mph 53 % 0.00 in
19:25 87.6 °F 69.4 °F 29.86 in Calm   1.0 mph 55 % 0.00 in
19:30 87.3 °F 69.6 °F 29.86 in Calm   1.0 mph 56 % 0.00 in
19:35 86.5 °F 69.4 °F 29.86 in Calm   1.0 mph 57 % 0.00 in
19:41 85.8 °F 69.3 °F 29.86 in Calm   1.0 mph 58 % 0.00 in
19:46 85.5 °F 69.4 °F 29.86 in Calm   1.0 mph 59 % 0.00 in
19:51 84.9 °F 70.5 °F 29.86 in Calm   1.0 mph 62 % 0.00 in
19:56 84.0 °F 70.0 °F 29.86 in Calm   1.0 mph 63 % 0.00 in
20:01 83.5 °F 70.5 °F 29.87 in Calm   1.0 mph 65 % 0.00 in
20:06 82.6 °F 69.6 °F 29.87 in Calm   1.0 mph 65 % 0.00 in
20:11 82.0 °F 70.0 °F 29.87 in Calm   1.0 mph 67 % 0.00 in
20:16 81.5 °F 70.0 °F 29.87 in Calm     68 % 0.00 in
20:21 81.1 °F 70.0 °F 29.87 in Calm     69 % 0.00 in
20:26 81.0 °F 70.2 °F 29.88 in Calm     70 % 0.00 in
20:31 80.6 °F 70.3 °F 29.88 in Calm     71 % 0.00 in
20:36 80.2 °F 70.3 °F 29.88 in Calm     72 % 0.00 in
20:41 80.1 °F 70.2 °F 29.88 in Calm     72 % 0.00 in
20:46 79.7 °F 70.3 °F 29.89 in Calm     73 % 0.00 in
20:51 79.3 °F 70.3 °F 29.89 in Calm     74 % 0.00 in
20:56 79.2 °F 70.2 °F 29.89 in Calm     74 % 0.00 in
21:01 79.0 °F 70.0 °F 29.89 in Calm     74 % 0.00 in
21:06 78.8 °F 70.2 °F 29.89 in Calm     75 % 0.00 in
21:11 78.6 °F 70.0 °F 29.89 in Calm     75 % 0.00 in
21:16 78.4 °F 70.2 °F 29.90 in Calm     76 % 0.00 in
21:21 78.3 °F 70.5 °F 29.90 in Calm     77 % 0.00 in
21:26 78.3 °F 70.5 °F 29.90 in Calm     77 % 0.00 in
21:31 78.1 °F 70.7 °F 29.90 in Calm     78 % 0.00 in
21:36 77.7 °F 70.3 °F 29.91 in Calm     78 % 0.00 in
21:41 77.5 °F 70.5 °F 29.91 in Calm     79 % 0.00 in
21:46 77.4 °F 70.7 °F 29.91 in Calm     80 % 0.00 in
21:54 77.2 °F 71.2 °F 29.91 in Calm     82 % 0.00 in
21:59 77.2 °F 71.2 °F 29.91 in Calm     82 % 0.00 in
22:04 77.4 °F 71.8 °F 29.91 in Calm     83 % 0.00 in
22:10 77.4 °F 71.8 °F 29.91 in Calm   1.0 mph 83 % 0.00 in
22:15 77.2 °F 71.6 °F 29.91 in Calm   1.0 mph 83 % 0.00 in
22:19 77.0 °F 71.4 °F 29.92 in Calm   1.0 mph 83 % 0.00 in
22:20 77.0 °F 71.4 °F 29.92 in Calm     83 % 0.00 in
22:23 76.8 °F 71.6 °F 29.92 in Calm     84 % 0.00 in
22:25 76.8 °F 71.6 °F 29.92 in Calm     84 % 0.00 in
22:28 76.8 °F 71.6 °F 29.92 in Calm     84 % 0.00 in
22:29 76.8 °F 72.0 °F 29.92 in Calm     85 % 0.00 in
22:34 76.6 °F 71.4 °F 29.92 in Calm     84 % 0.00 in
22:39 76.3 °F 71.1 °F 29.92 in Calm     84 % 0.00 in
22:44 75.9 °F 71.4 °F 29.92 in Calm     86 % 0.00 in
22:49 75.9 °F 71.4 °F 29.92 in Calm     86 % 0.00 in
22:54 75.7 °F 71.2 °F 29.93 in Calm     86 % 0.00 in
22:59 75.6 °F 71.4 °F 29.93 in Calm     87 % 0.00 in
23:04 75.2 °F 71.1 °F 29.93 in Calm     87 % 0.00 in
23:09 75.0 °F 71.2 °F 29.93 in Calm     88 % 0.00 in
23:14 74.8 °F 71.1 °F 29.93 in Calm     88 % 0.00 in
23:19 74.8 °F 71.4 °F 29.93 in Calm     89 % 0.00 in
23:24 74.8 °F 71.4 °F 29.93 in Calm     89 % 0.00 in
23:29 74.7 °F 71.2 °F 29.93 in Calm     89 % 0.00 in
23:34 74.5 °F 71.1 °F 29.93 in Calm     89 % 0.00 in
23:39 74.5 °F 71.4 °F 29.93 in Calm     90 % 0.00 in
23:44 74.3 °F 71.2 °F 29.93 in Calm     90 % 0.00 in
23:49 74.3 °F 71.4 °F 29.93 in Calm     91 % 0.00 in
23:54 74.3 °F 71.4 °F 29.93 in Calm     91 % 0.00 in
23:59 74.1 °F 71.2 °F 29.92 in Calm     91 % 0.00 in
Spring, Texas: Villages of Bridgestone
Compliments of Weather Underground - 3 mb

Script developed by  Jim McMurry - jmcmurry@mwt.net Adapted for the template by  Wim van der Kuil - Leuven-Template.eu

You find our weather info also at:

UK Metoffice

WeatherCloud

Weather Underground

Mid-South Weather Network

AWEKAS

Citizen Weather Observer Program (CWOP)

HAMweather, WeatherForYou, PWS Weather

Equipment we use:

Weather-station
Davis Vantage Vue

Weather-program
Meteohub

Weather-server
Debian 7.9 x86 (Guest)

Provider
DreamHost

Davis Vantage Vue

Meteohub

Debian 7.9 x86 (Guest)

DreamHost